TimeCST,TemperatureF,Dew PointF,Humidity,Sea Level PressureIn,VisibilityMPH,Wind Direction,Wind SpeedMPH,Gust SpeedMPH,PrecipitationIn,Events,Conditions,WindDirDegrees,DateUTC
12:53 AM,42.1,34.0,73,30.40,10.0,North,10.4,-,N/A,,Clear,350,2013-01-18 06:53:00
1:53 AM,39.9,34.0,79,30.40,10.0,North,10.4,-,N/A,,Clear,350,2013-01-18 07:53:00
2:53 AM,39.0,33.1,79,30.40,10.0,North,11.5,-,N/A,,Clear,350,2013-01-18 08:53:00
3:53 AM,37.0,33.1,86,30.43,10.0,North,9.2,-,N/A,,Clear,360,2013-01-18 09:53:00
4:53 AM,36.0,32.0,86,30.44,10.0,North,6.9,-,N/A,,Clear,360,2013-01-18 10:53:00
5:53 AM,37.0,33.1,86,30.46,10.0,NNE,8.1,-,N/A,,Clear,20,2013-01-18 11:53:00
6:53 AM,36.0,33.1,89,30.48,10.0,NNE,10.4,-,N/A,,Clear,20,2013-01-18 12:53:00
7:53 AM,37.9,34.0,86,30.50,9.0,North,12.7,-,N/A,,Clear,10,2013-01-18 13:53:00
8:53 AM,43.0,34.0,71,30.52,10.0,NNE,10.4,-,N/A,,Clear,20,2013-01-18 14:53:00
9:53 AM,48.0,33.1,56,30.53,10.0,North,11.5,-,N/A,,Clear,10,2013-01-18 15:53:00
10:53 AM,52.0,34.0,50,30.51,10.0,NE,6.9,-,N/A,,Clear,40,2013-01-18 16:53:00
11:53 AM,55.9,36.0,47,30.48,10.0,ENE,9.2,-,N/A,,Clear,70,2013-01-18 17:53:00
12:53 PM,57.9,35.1,42,30.44,10.0,East,6.9,-,N/A,,Clear,90,2013-01-18 18:53:00
1:53 PM,57.9,32.0,37,30.42,10.0,Calm,Calm,-,N/A,,Clear,0,2013-01-18 19:53:00
2:53 PM,59.0,35.1,41,30.40,10.0,NNW,5.8,-,N/A,,Clear,340,2013-01-18 20:53:00
3:53 PM,59.0,34.0,39,30.40,10.0,North,8.1,-,N/A,,Clear,350,2013-01-18 21:53:00
4:53 PM,55.0,34.0,45,30.40,10.0,NNE,3.5,-,N/A,,Clear,20,2013-01-18 22:53:00
5:53 PM,44.1,37.0,76,30.43,10.0,Calm,Calm,-,N/A,,Clear,0,2013-01-18 23:53:00
6:53 PM,37.9,35.1,89,30.43,10.0,Calm,Calm,-,N/A,,Clear,0,2013-01-19 00:53:00
7:53 PM,37.9,35.1,89,30.43,10.0,Calm,Calm,-,N/A,,Clear,0,2013-01-19 01:53:00
8:53 PM,36.0,33.1,89,30.43,10.0,Calm,Calm,-,N/A,,Clear,0,2013-01-19 02:53:00
9:53 PM,35.1,33.1,92,30.42,10.0,Calm,Calm,-,N/A,,Clear,0,2013-01-19 03:53:00
10:53 PM,34.0,30.9,89,30.40,7.0,Calm,Calm,-,N/A,,Clear,0,2013-01-19 04:53:00
11:53 PM,32.0,30.0,92,30.40,10.0,North,4.6,-,N/A,,Clear,350,2013-01-19 05:53:00